Theta_e
349 353 357 356 356 354 354 353 352 352 352 353 352 349 348 348 349 346 345 348 345 346 347 345 339 346 344 344 342 342 341 346 342 343 342 343 343 342 341 340 343 345 346
346 348 351 355 357 355 356 355 354 353 352 352 352 352 346 348 346 347 345 346 347 349 347 347 340 343 348 347 344 348 343 344 344 346 345 343 341 344 343 344 342 342 342
343 345 347 349 350 354 354 356 356 354 354 352 353 352 350 350 348 346 347 347 346 346 346 345 345 339 345 348 345 344 346 342 342 343 343 343 343 343 342 342 343 342 342
341 341 343 346 347 350 352 354 357 355 354 354 353 353 352 350 353 349 347 346 350 347 346 345 345 341 343 346 345 343 343 346 344 342 339 341 342 342 342 345 344 342 342
339 340 339 341 340 344 352 354 356 355 352 352 351 353 352 350 349 350 350 348 347 349 349 347 347 346 343 345 345 345 345 343 344 343 342 342 341 341 341 342 345 343 343
338 339 340 341 339 339 342 353 352 352 351 354 352 351 352 351 349 349 349 351 349 347 348 348 347 347 344 344 346 346 346 343 343 344 345 346 345 341 341 340 345 346 346
339 339 339 339 340 341 339 338 342 346 352 353 352 353 351 351 351 349 348 350 351 350 348 348 347 348 347 343 344 345 345 345 344 343 343 342 345 345 344 343 341 342 341
337 337 338 338 339 339 338 339 340 338 340 340 343 347 352 354 351 350 350 349 349 352 352 350 349 348 348 347 343 343 344 344 346 346 344 344 344 344 344 345 344 342 343
335 335 333 333 333 334 335 337 338 340 343 341 341 342 342 341 347 350 349 350 349 349 350 350 352 350 349 349 348 346 344 343 343 344 345 345 345 343 342 344 344 343 345
335 334 333 334 334 334 334 335 335 336 338 338 344 346 344 343 343 342 343 349 350 350 350 349 349 350 351 349 349 348 347 343 342 345 345 345 344 344 343 343 343 344 347
335 335 335 335 335 335 335 335 334 332 333 336 339 338 343 346 345 345 344 343 343 349 349 349 349 349 351 350 349 348 347 346 344 346 346 345 343 344 346 344 344 344 347
335 335 335 335 335 335 334 332 330 328 328 336 337 339 340 342 341 343 344 342 344 343 345 349 349 349 349 351 349 349 349 348 347 347 348 347 346 345 344 344 345 344 345
334 334 335 334 334 334 333 331 327 328 329 334 336 336 336 338 342 343 343 342 341 342 343 343 346 348 348 345 341 341 338 344 349 348 348 347 347 347 346 344 345 345 345
335 336 335 334 333 331 327 325 326 329 331 332 333 334 335 335 336 338 339 339 338 342 343 344 344 348 347 340 335 332 334 334 335 339 351 349 347 347 346 346 345 345 346
334 334 333 332 331 329 327 321 327 330 331 332 334 335 336 336 337 336 338 338 340 343 343 343 344 344 344 340 332 334 332 333 334 335 343 349 349 348 347 346 347 345 346
334 333 333 330 329 328 326 321 327 329 329 331 332 332 333 335 336 337 339 339 341 342 341 342 344 344 345 345 343 342 338 338 338 335 334 335 347 346 347 345 346 347 346
334 333 332 330 329 329 320 319 324 329 328 329 330 330 330 331 332 334 341 342 341 341 341 342 344 343 344 345 344 341 339 337 337 337 335 336 343 342 344 347 346 344 346
334 333 332 330 329 325 320 317 318 322 324 327 330 330 330 328 332 334 338 341 341 341 342 341 342 343 344 344 344 343 342 340 338 337 335 334 335 337 336 345 346 344 346
333 333 332 330 329 323 321 317 317 318 317 326 328 329 327 329 332 332 335 338 338 338 339 339 339 340 341 343 343 342 343 344 344 343 341 344 337 338 341 345 344 344 342
335 334 332 330 327 323 322 319 317 313 324 328 326 326 325 331 334 336 330 334 334 337 337 339 339 338 339 340 341 342 341 342 342 342 342 343 344 345 344 343 342 343 341
335 333 330 326 323 321 321 318 315 314 326 328 326 327 324 330 331 332 328 329 335 337 338 338 339 339 340 341 340 341 339 339 339 340 340 341 341 341 341 341 341 342 344
335 332 329 323 321 321 320 318 315 313 323 326 328 328 329 329 329 331 326 327 337 336 337 337 338 338 338 338 339 338 338 338 339 339 340 339 339 339 340 341 342 343 343
334 330 329 325 324 323 320 317 316 315 317 327 327 327 328 328 329 331 333 330 331 331 335 334 334 335 335 337 338 337 336 336 338 338 337 335 335 336 336 336 336 336 336
331 330 329 326 324 324 319 321 317 315 315 328 327 328 328 330 325 325 329 332 333 333 333 330 332 332 332 332 331 332 335 336 337 338 336 336 336 336 336 336 336 336 336
328 327 329 325 321 324 324 324 321 313 317 328 327 326 328 330 329 322 322 323 325 330 332 324 323 325 325 322 322 324 321 324 328 330 331 331 333 335 334 333 334 335 333
328 325 325 323 322 326 326 327 322 312 313 326 325 325 324 327 330 328 326 323 323 323 322 323 323 323 324 324 323 320 320 327 332 332 332 331 330 332 331 330 332 332 331
Wind_Speed
11 8 13 17 13 19 23 22 25 25 25 26 26 33 34 31 27 27 24 23 25 26 23 18 23 22 21 21 16 15 19 19 16 21 14 17 20 19 16 23 24 20 21
12 11 12 7 6 11 17 23 26 26 30 30 29 27 35 35 33 30 29 27 26 27 26 23 24 29 25 24 22 22 24 22 21 21 20 18 20 22 22 20 20 23 23
15 10 8 4 4 11 15 23 27 23 28 28 29 27 30 30 32 33 34 31 30 30 30 28 25 31 29 28 28 26 28 29 27 27 24 12 15 18 21 25 24 23 23
18 11 6 3 6 8 10 18 26 24 25 25 29 32 31 36 32 33 32 36 31 34 34 34 32 33 35 33 35 32 32 30 31 27 30 28 11 12 12 18 31 25 23
19 12 4 3 5 10 9 6 10 19 22 26 26 29 31 35 39 35 34 37 40 35 37 38 35 29 40 36 34 35 37 38 35 30 28 29 30 30 26 20 18 28 28
17 12 9 6 4 7 9 6 7 12 16 22 27 29 33 34 35 41 39 35 39 44 42 43 40 38 36 43 37 36 35 38 38 34 33 30 30 29 29 26 20 18 26
16 12 11 6 4 2 5 10 10 15 16 17 22 26 28 34 39 39 40 38 40 44 46 45 41 42 40 40 43 41 36 36 38 40 39 37 34 31 30 29 30 29 30
15 11 7 5 2 5 7 8 11 18 21 22 25 23 22 26 33 39 42 43 44 40 45 47 45 45 42 40 42 46 42 39 36 34 34 36 37 37 35 34 32 33 31
13 16 12 10 9 10 11 12 14 16 23 26 23 24 24 24 28 30 37 44 47 47 45 40 45 49 44 43 41 45 44 45 40 38 35 35 35 35 34 32 34 33 32
15 12 10 9 10 11 13 16 17 19 20 19 23 29 28 27 27 26 29 32 42 48 53 50 43 49 50 40 44 42 44 43 45 40 38 34 34 34 32 32 30 31 34
11 9 6 6 10 16 21 24 28 33 34 32 27 26 28 31 31 32 31 30 31 36 44 49 55 48 41 49 45 41 38 40 41 41 39 37 35 35 35 33 34 32 32
6 5 3 6 13 19 24 29 32 38 32 30 30 30 27 29 33 36 34 35 34 31 31 38 43 50 44 38 31 30 29 35 39 39 36 35 33 34 33 35 36 37 35
4 3 4 5 12 18 25 33 32 31 31 31 33 34 39 34 30 35 36 36 37 36 31 29 32 36 32 27 3 28 24 29 33 36 36 35 34 36 35 36 37 37 37
8 9 5 8 15 22 30 30 28 28 28 27 28 28 29 33 34 36 37 37 34 32 32 28 27 27 31 13 11 18 33 38 48 37 36 33 34 36 35 36 37 36 37
9 7 9 15 22 29 28 27 26 26 25 24 24 23 23 24 26 32 36 36 32 29 29 29 27 28 30 31 23 31 19 44 43 45 41 34 35 35 38 38 39 36 36
6 6 11 18 27 27 26 24 25 26 25 24 24 25 25 25 26 27 28 30 29 28 29 31 29 27 28 28 29 37 44 52 46 42 46 46 41 36 33 39 41 40 34
6 11 13 20 21 22 22 22 24 23 25 25 25 26 26 28 29 29 22 22 25 25 27 28 27 27 25 24 20 30 40 42 39 31 34 50 51 33 32 38 43 41 35
5 11 14 14 16 17 18 20 21 23 25 25 26 24 25 30 25 25 19 15 13 16 20 22 24 24 22 21 22 29 36 41 40 27 31 30 39 49 47 37 42 44 38
12 14 13 14 19 14 16 18 20 23 23 24 26 24 26 31 27 26 17 10 14 16 18 20 21 21 20 20 22 21 27 30 32 31 35 32 28 32 38 41 41 36 34
8 10 10 14 15 12 13 16 18 23 20 23 25 23 26 28 32 7 2 10 12 13 15 15 19 19 17 16 15 16 19 21 22 25 30 32 30 29 31 35 36 36 34
9 11 8 11 11 11 9 14 17 19 18 18 20 18 23 27 24 18 15 15 6 9 9 11 17 16 17 15 18 17 15 17 16 15 18 21 20 23 24 28 31 33 34
8 9 7 8 8 9 10 10 14 20 18 17 15 15 16 21 19 20 30 33 19 14 9 3 9 8 7 7 11 12 13 13 12 9 10 9 8 8 8 11 16 19 20
5 10 10 8 10 10 8 12 12 16 18 16 15 17 13 13 16 17 22 18 18 20 20 23 24 21 18 18 13 8 7 7 7 8 8 8 8 7 7 7 7 8 11
5 13 13 12 10 8 9 9 14 11 17 15 15 19 8 7 11 16 18 20 21 17 20 20 20 20 17 17 17 15 10 7 6 5 5 4 3 3 3 3 3 3 3
9 9 13 11 5 6 7 9 12 9 11 14 17 24 9 4 12 13 15 17 19 19 16 19 18 16 16 16 14 11 9 8 10 13 13 11 9 10 9 8 8 7 4
10 6 7 8 7 8 7 7 14 7 4 9 17 21 20 17 12 10 11 13 16 15 15 15 15 15 13 12 12 10 9 8 9 9 9 10 10 10 9 7 5 4 1
Wind_Direction
57 60 125 176 189 205 201 211 212 222 228 224 222 224 216 213 214 221 236 236 243 239 233 236 229 214 214 222 220 217 222 220 223 227 231 244 244 246 243 233 237 237 240
76 59 70 109 208 236 236 225 222 230 231 234 239 241 225 219 222 219 228 240 239 237 236 238 228 218 221 222 225 231 220 221 228 229 230 242 239 246 240 237 237 232 239
112 90 61 68 30 255 257 242 232 247 235 237 238 239 233 229 225 224 225 235 243 245 247 247 244 225 221 218 225 227 221 223 223 229 231 233 237 242 244 250 250 244 235
128 124 111 47 4 354 275 266 241 241 244 250 242 237 235 230 227 230 231 233 238 241 244 248 248 231 226 222 227 228 228 224 231 235 231 231 239 222 245 256 248 238 235
131 124 108 38 17 6 353 308 253 247 253 248 247 248 242 239 234 229 238 233 238 240 242 246 247 241 229 230 230 232 232 233 236 233 230 232 240 248 261 277 251 235 235
144 145 154 154 38 3 358 329 280 262 264 247 254 251 247 245 241 234 233 239 238 239 240 246 251 249 241 232 233 232 234 235 236 234 231 238 236 239 250 251 244 235 236
139 141 153 147 118 122 321 323 298 301 287 276 266 266 263 252 246 243 238 237 238 236 238 241 245 247 246 235 237 237 235 234 235 239 238 237 240 243 246 249 250 257 267
120 101 105 61 64 335 324 297 287 296 292 296 292 284 280 270 256 251 245 241 241 240 243 242 244 244 242 243 237 238 240 239 237 237 240 242 240 244 247 248 253 261 260
102 96 79 47 30 19 10 5 351 323 284 290 285 289 288 281 277 267 255 249 244 244 242 243 241 241 241 239 239 235 234 237 240 240 240 241 242 245 247 251 252 255 258
94 79 51 23 1 330 304 297 307 316 320 319 292 280 282 288 288 279 274 262 255 249 245 245 244 242 234 237 236 237 234 232 237 241 243 242 243 244 246 245 246 248 252
71 53 20 333 299 297 302 311 309 306 300 295 303 293 279 277 284 279 277 277 273 263 253 250 250 247 243 239 234 233 236 236 235 238 243 244 246 246 245 243 241 247 246
64 27 336 326 310 309 311 313 315 313 303 293 284 283 280 274 270 273 273 278 275 275 271 258 255 250 244 228 196 210 232 234 239 240 238 244 244 243 245 248 243 245 248
45 347 17 339 315 320 321 321 322 321 306 296 291 291 276 272 270 263 268 270 271 272 273 271 265 260 243 225 110 212 256 244 236 242 238 241 247 249 245 245 247 245 248
86 103 59 345 335 331 333 333 329 332 325 312 308 302 294 283 273 271 270 272 275 265 268 268 264 260 253 229 297 303 249 262 246 248 242 240 242 249 251 251 250 251 253
74 40 348 338 332 333 336 336 336 333 331 324 324 316 300 290 279 271 271 270 269 260 260 263 258 258 247 239 231 210 201 242 247 245 245 238 237 248 250 255 256 252 250
54 9 341 333 333 333 336 337 336 338 335 332 330 323 311 305 301 294 281 269 263 255 255 253 249 252 243 241 231 231 226 234 247 257 250 246 240 238 247 255 255 252 251
11 330 326 329 328 329 332 335 340 338 341 343 335 330 324 319 313 305 287 270 257 253 248 243 236 238 236 236 237 222 224 224 244 250 249 235 230 237 254 251 250 249 248
318 311 320 321 325 330 338 338 344 342 342 337 338 337 333 335 316 308 286 270 248 239 236 235 229 232 231 232 223 218 231 234 237 245 248 247 237 239 261 244 249 243 243
299 301 311 319 322 332 338 339 350 354 347 345 346 0 352 348 331 293 271 260 257 241 238 244 238 230 226 227 228 224 228 229 240 240 244 245 241 228 235 239 243 242 248
267 279 283 310 319 323 332 343 352 358 357 356 350 5 356 355 359 17 322 291 261 264 251 246 235 228 224 226 220 220 223 228 235 244 247 248 244 237 233 235 239 243 244
280 272 279 320 335 344 321 352 355 356 357 357 344 351 3 7 12 51 45 19 298 247 243 237 223 220 222 223 226 213 211 215 219 227 235 237 239 234 236 237 239 239 239
267 252 244 309 333 343 357 339 9 12 355 356 350 352 352 4 18 38 39 28 63 91 142 138 131 169 173 212 204 196 208 215 220 226 232 221 214 220 223 236 228 220 221
262 230 246 302 310 329 334 352 358 12 351 348 352 358 1 10 27 43 57 49 68 85 87 82 87 82 84 91 101 142 149 179 233 192 158 149 161 168 173 197 203 211 219
273 245 267 299 315 330 337 354 355 359 343 343 8 6 3 23 43 63 71 67 68 71 86 79 83 83 79 74 76 74 85 116 128 141 149 151 144 175 160 194 191 201 227
338 283 271 284 322 337 352 338 340 356 348 352 18 28 43 24 46 55 59 63 65 69 80 63 75 76 75 70 68 64 61 76 98 97 95 85 99 106 108 104 125 127 127
334 279 265 290 298 320 322 317 330 339 357 11 25 27 30 56 33 30 50 70 65 59 59 64 61 64 66 67 62 59 63 82 101 85 83 87 78 92 76 76 88 102 124